Location: Newark
(45.8378°N, 5.5389°E)
Time: 12:51:48
(UTC+00:00)

YUBILEINY - Pass Details

Date: 22 December 2019
Orbit: 1478 x 1509 km, 82.5° (Epoch: 18 January)

Event Time Altitude Azimuth Distance (km) Brightness Sun altitude
Rises 18:32:09 0° 154° (SSE) 4,603 ? -26.1°
Reaches altitude 10° 18:35:18 10° 146° (SE) 3,622 ? -26.6°
Enters shadow 18:35:20 10° 145° (SE) 3,616 ? -26.6°
Exits shadow 18:52:53 - 17° (NNE) 4,361 ? -29.6°
Sets 18:53:40 0° 15° (NNE) 4,610 ? -29.8°
